Time,TemperatureF,DewpointF,PressureIn,WindDirection,WindDirectionDegrees,WindSpeedMPH,WindSpeedGustMPH,Humidity,HourlyPrecipIn,Conditions,Clouds,dailyrainin,SoftwareType,DateUTC
2013-01-14 00:03:00,19.9,3.4,28.85,NE,45,0.0,0.0,48,0.00,,,0.00,VWS V14.01,2013-01-14 06:03:00,
2013-01-14 00:08:00,19.9,3.4,28.85,NE,45,0.0,0.0,48,0.00,,,0.00,VWS V14.01,2013-01-14 06:08:00,
2013-01-14 00:13:00,19.9,3.4,28.85,NE,45,0.0,0.0,48,0.00,,,0.00,VWS V14.01,2013-01-14 06:13:00,
2013-01-14 00:18:00,19.9,3.4,28.85,NE,45,0.0,0.0,48,0.00,,,0.00,VWS V14.01,2013-01-14 06:18:00,
2013-01-14 00:23:00,19.9,3.4,28.85,NE,45,0.0,0.0,48,0.00,,,0.00,VWS V14.01,2013-01-14 06:23:00,
2013-01-14 00:28:00,19.9,3.4,28.85,NNE,22,0.0,0.0,48,0.00,,,0.00,VWS V14.01,2013-01-14 06:28:00,
2013-01-14 00:33:00,19.9,3.4,28.85,NNE,22,0.0,0.0,48,0.00,,,0.00,VWS V14.01,2013-01-14 06:33:00,
2013-01-14 00:38:00,19.9,3.4,28.85,NNE,22,0.0,0.0,48,0.00,,,0.00,VWS V14.01,2013-01-14 06:38:00,
2013-01-14 00:43:00,19.9,3.4,28.85,NNE,22,0.0,0.0,48,0.00,,,0.00,VWS V14.01,2013-01-14 06:43:00,
2013-01-14 00:48:00,19.9,3.4,28.88,NNE,22,0.0,0.0,48,0.00,,,0.00,VWS V14.01,2013-01-14 06:48:00,
2013-01-14 00:53:00,19.9,3.4,28.88,NNE,22,0.0,0.0,48,0.00,,,0.00,VWS V14.01,2013-01-14 06:53:00,
2013-01-14 00:58:00,19.9,3.4,28.88,NNE,22,0.0,0.0,48,0.00,,,0.00,VWS V14.01,2013-01-14 06:58:00,
2013-01-14 01:03:00,17.8,2.3,28.88,NNE,22,0.0,0.0,50,0.00,,,0.00,VWS V14.01,2013-01-14 07:03:00,
2013-01-14 01:08:00,17.8,2.3,28.88,NNE,22,0.0,0.0,50,0.00,,,0.00,VWS V14.01,2013-01-14 07:08:00,
2013-01-14 01:13:00,17.8,2.3,28.88,NNE,22,0.0,0.0,50,0.00,,,0.00,VWS V14.01,2013-01-14 07:13:00,
2013-01-14 01:18:00,17.8,2.3,28.91,NNE,22,0.0,0.0,50,0.00,,,0.00,VWS V14.01,2013-01-14 07:18:00,
2013-01-14 01:23:00,17.8,2.3,28.91,NE,45,0.0,0.0,50,0.00,,,0.00,VWS V14.01,2013-01-14 07:23:00,
2013-01-14 01:28:00,17.8,2.3,28.91,ENE,68,0.0,0.0,50,0.00,,,0.00,VWS V14.01,2013-01-14 07:28:00,
2013-01-14 01:33:00,17.8,2.3,28.91,ENE,68,0.0,0.0,50,0.00,,,0.00,VWS V14.01,2013-01-14 07:33:00,
2013-01-14 01:38:00,17.8,2.3,28.91,ENE,68,0.0,0.0,50,0.00,,,0.00,VWS V14.01,2013-01-14 07:38:00,
2013-01-14 01:43:00,17.8,2.3,28.91,ENE,68,0.0,0.0,50,0.00,,,0.00,VWS V14.01,2013-01-14 07:43:00,
2013-01-14 01:48:00,17.8,2.3,28.91,ENE,68,0.0,0.0,50,0.00,,,0.00,VWS V14.01,2013-01-14 07:48:00,
2013-01-14 01:53:00,17.8,2.3,28.91,ENE,68,0.0,0.0,50,0.00,,,0.00,VWS V14.01,2013-01-14 07:53:00,
2013-01-14 01:58:00,17.8,2.3,28.91,ENE,68,0.0,0.0,50,0.00,,,0.00,VWS V14.01,2013-01-14 07:58:00,
2013-01-14 02:03:00,17.8,2.3,28.91,ENE,68,0.0,0.0,50,0.00,,,0.00,VWS V14.01,2013-01-14 08:03:00,
2013-01-14 02:08:00,16.5,2.0,28.91,ENE,68,0.0,0.0,52,0.00,,,0.00,VWS V14.01,2013-01-14 08:08:00,
2013-01-14 02:13:00,16.5,2.0,28.91,ENE,68,0.0,0.0,52,0.00,,,0.00,VWS V14.01,2013-01-14 08:13:00,
2013-01-14 02:18:00,16.5,2.0,28.91,ENE,68,3.1,3.4,52,0.00,,,0.00,VWS V14.01,2013-01-14 08:18:00,
2013-01-14 02:23:00,16.5,2.0,28.91,ENE,68,3.8,3.8,52,0.00,,,0.00,VWS V14.01,2013-01-14 08:23:00,
2013-01-14 02:28:00,16.5,2.0,28.91,ENE,68,0.0,0.0,52,0.00,,,0.00,VWS V14.01,2013-01-14 08:28:00,
2013-01-14 02:33:00,16.3,1.8,28.91,ENE,68,0.0,0.0,52,0.00,,,0.00,VWS V14.01,2013-01-14 08:33:00,
2013-01-14 02:38:00,16.2,2.0,28.91,ENE,68,0.0,0.0,53,0.00,,,0.00,VWS V14.01,2013-01-14 08:38:00,
2013-01-14 02:43:00,16.2,1.6,28.91,ENE,68,0.0,0.0,52,0.00,,,0.00,VWS V14.01,2013-01-14 08:43:00,
2013-01-14 02:48:00,16.2,2.0,28.91,ENE,68,0.0,0.0,53,0.00,,,0.00,VWS V14.01,2013-01-14 08:48:00,
2013-01-14 02:53:00,16.2,2.0,28.91,ENE,68,0.0,0.0,53,0.00,,,0.00,VWS V14.01,2013-01-14 08:53:00,
2013-01-14 02:58:00,16.2,2.0,28.91,ENE,68,0.0,0.0,53,0.00,,,0.00,VWS V14.01,2013-01-14 08:58:00,
2013-01-14 03:03:00,16.2,2.0,28.91,ENE,68,0.0,0.0,53,0.00,,,0.00,VWS V14.01,2013-01-14 09:03:00,
2013-01-14 03:08:00,16.2,2.0,28.91,NE,45,0.0,0.0,53,0.00,,,0.00,VWS V14.01,2013-01-14 09:08:00,
2013-01-14 03:13:00,16.2,2.0,28.91,NE,45,0.0,0.0,53,0.00,,,0.00,VWS V14.01,2013-01-14 09:13:00,
2013-01-14 03:18:00,16.2,2.0,28.91,NE,45,0.0,0.0,53,0.00,,,0.00,VWS V14.01,2013-01-14 09:18:00,
2013-01-14 03:23:00,16.2,2.0,28.91,NE,45,4.0,4.0,53,0.00,,,0.00,VWS V14.01,2013-01-14 09:23:00,
2013-01-14 03:28:00,16.2,2.0,28.91,NE,45,0.0,0.0,53,0.00,,,0.00,VWS V14.01,2013-01-14 09:28:00,
2013-01-14 03:33:00,16.2,2.0,28.91,ENE,68,0.0,0.0,53,0.00,,,0.00,VWS V14.01,2013-01-14 09:33:00,
2013-01-14 03:38:00,16.2,2.0,28.91,ENE,68,0.0,0.0,53,0.00,,,0.00,VWS V14.01,2013-01-14 09:38:00,
2013-01-14 03:43:00,16.2,2.0,28.91,ENE,68,0.0,0.0,53,0.00,,,0.00,VWS V14.01,2013-01-14 09:43:00,
2013-01-14 03:48:00,16.2,2.0,28.91,ENE,68,0.0,0.0,53,0.00,,,0.00,VWS V14.01,2013-01-14 09:48:00,
2013-01-14 03:53:00,15.6,2.0,28.91,ENE,68,0.0,0.0,54,0.00,,,0.00,VWS V14.01,2013-01-14 09:53:00,
2013-01-14 03:58:00,15.4,1.8,28.91,ENE,68,0.0,0.0,54,0.00,,,0.00,VWS V14.01,2013-01-14 09:58:00,
2013-01-14 04:03:00,15.4,1.8,28.91,ENE,68,0.0,0.0,54,0.00,,,0.00,VWS V14.01,2013-01-14 10:03:00,
2013-01-14 04:08:00,15.4,1.8,28.91,ENE,68,0.0,0.0,54,0.00,,,0.00,VWS V14.01,2013-01-14 10:08:00,
2013-01-14 04:13:00,15.4,2.2,28.91,NE,45,0.0,0.0,55,0.00,,,0.00,VWS V14.01,2013-01-14 10:13:00,
2013-01-14 04:18:00,15.4,2.2,28.91,NNE,22,0.0,0.0,55,0.00,,,0.00,VWS V14.01,2013-01-14 10:18:00,
2013-01-14 04:23:00,15.4,2.2,28.91,NE,45,2.5,2.5,55,0.00,,,0.00,VWS V14.01,2013-01-14 10:23:00,
2013-01-14 04:28:00,15.4,2.2,28.91,NNE,22,0.0,2.7,55,0.00,,,0.00,VWS V14.01,2013-01-14 10:28:00,
2013-01-14 04:33:00,15.4,2.2,28.91,NE,45,4.9,4.9,55,0.00,,,0.00,VWS V14.01,2013-01-14 10:33:00,
2013-01-14 04:38:00,15.4,2.2,28.91,NNE,22,0.0,0.0,55,0.00,,,0.00,VWS V14.01,2013-01-14 10:38:00,
2013-01-14 04:43:00,15.4,2.2,28.91,North,0,4.3,4.3,55,0.00,,,0.00,VWS V14.01,2013-01-14 10:43:00,
2013-01-14 04:48:00,15.4,2.2,28.88,North,0,3.6,3.6,55,0.00,,,0.00,VWS V14.01,2013-01-14 10:48:00,
2013-01-14 04:53:00,15.4,2.2,28.88,NE,45,0.0,4.9,55,0.00,,,0.00,VWS V14.01,2013-01-14 10:53:00,
2013-01-14 04:58:00,15.4,2.2,28.88,NNE,22,5.4,5.8,55,0.00,,,0.00,VWS V14.01,2013-01-14 10:58:00,
2013-01-14 05:03:00,15.4,2.2,28.88,NNE,22,3.8,4.9,55,0.00,,,0.00,VWS V14.01,2013-01-14 11:03:00,
2013-01-14 05:08:00,15.6,2.3,28.88,NNE,22,0.0,4.7,55,0.00,,,0.00,VWS V14.01,2013-01-14 11:08:00,
2013-01-14 05:13:00,15.8,2.5,28.88,NNE,22,5.4,5.4,55,0.00,,,0.00,VWS V14.01,2013-01-14 11:13:00,
2013-01-14 05:18:00,15.8,2.5,28.88,NNE,22,0.0,0.0,55,0.00,,,0.00,VWS V14.01,2013-01-14 11:18:00,
2013-01-14 05:23:00,15.8,2.5,28.88,NE,45,0.0,0.0,55,0.00,,,0.00,VWS V14.01,2013-01-14 11:23:00,
2013-01-14 05:28:00,15.8,2.5,28.88,NE,45,0.0,0.0,55,0.00,,,0.00,VWS V14.01,2013-01-14 11:28:00,
2013-01-14 05:33:00,15.8,2.5,28.91,NNE,22,0.0,0.0,55,0.00,,,0.00,VWS V14.01,2013-01-14 11:33:00,
2013-01-14 05:38:00,15.8,2.5,28.91,NE,45,0.0,0.0,55,0.00,,,0.00,VWS V14.01,2013-01-14 11:38:00,
2013-01-14 05:43:00,15.8,2.5,28.91,NE,45,0.0,0.0,55,0.00,,,0.00,VWS V14.01,2013-01-14 11:43:00,
2013-01-14 05:48:00,15.8,2.5,28.91,ENE,68,0.0,0.0,55,0.00,,,0.00,VWS V14.01,2013-01-14 11:48:00,
2013-01-14 05:53:00,15.8,2.5,28.91,ENE,68,0.0,0.0,55,0.00,,,0.00,VWS V14.01,2013-01-14 11:53:00,
2013-01-14 05:58:00,15.8,2.5,28.91,ENE,68,0.0,0.0,55,0.00,,,0.00,VWS V14.01,2013-01-14 11:58:00,
2013-01-14 06:03:00,15.8,2.5,28.91,ENE,68,0.0,0.0,55,0.00,,,0.00,VWS V14.01,2013-01-14 12:03:00,
2013-01-14 06:08:00,15.8,2.5,28.91,NE,45,0.0,0.0,55,0.00,,,0.00,VWS V14.01,2013-01-14 12:08:00,
2013-01-14 06:13:00,15.8,2.5,28.91,NNE,22,0.0,0.0,55,0.00,,,0.00,VWS V14.01,2013-01-14 12:13:00,
2013-01-14 06:18:00,15.8,2.5,28.91,NNW,338,0.0,0.0,55,0.00,,,0.00,VWS V14.01,2013-01-14 12:18:00,
2013-01-14 06:23:00,15.8,2.5,28.91,North,0,0.0,0.0,55,0.00,,,0.00,VWS V14.01,2013-01-14 12:23:00,
2013-01-14 06:28:00,15.8,2.5,28.91,North,0,0.0,0.0,55,0.00,,,0.00,VWS V14.01,2013-01-14 12:28:00,
2013-01-14 06:33:00,15.8,2.5,28.91,NNE,22,0.0,0.0,55,0.00,,,0.00,VWS V14.01,2013-01-14 12:33:00,
2013-01-14 06:38:00,15.8,2.5,28.91,NE,45,0.0,0.0,55,0.00,,,0.00,VWS V14.01,2013-01-14 12:38:00,
2013-01-14 06:43:00,15.8,2.5,28.91,NE,45,0.0,0.0,55,0.00,,,0.00,VWS V14.01,2013-01-14 12:43:00,
2013-01-14 06:48:00,15.8,2.5,28.94,NE,45,0.0,0.0,55,0.00,,,0.00,VWS V14.01,2013-01-14 12:48:00,
2013-01-14 06:53:00,15.8,2.5,28.94,NE,45,0.0,0.0,55,0.00,,,0.00,VWS V14.01,2013-01-14 12:53:00,
2013-01-14 06:58:00,15.8,2.5,28.94,NE,45,0.0,0.0,55,0.00,,,0.00,VWS V14.01,2013-01-14 12:58:00,
2013-01-14 07:03:00,15.8,2.5,28.94,NNE,22,0.0,0.0,55,0.00,,,0.00,VWS V14.01,2013-01-14 13:03:00,
2013-01-14 07:08:00,15.8,2.5,28.94,NNE,22,0.0,0.0,55,0.00,,,0.00,VWS V14.01,2013-01-14 13:08:00,
2013-01-14 07:13:00,15.8,2.5,28.94,NNE,22,0.0,0.0,55,0.00,,,0.00,VWS V14.01,2013-01-14 13:13:00,
2013-01-14 07:18:00,15.8,2.5,28.94,North,0,0.0,0.0,55,0.00,,,0.00,VWS V14.01,2013-01-14 13:18:00,
2013-01-14 07:23:00,14.7,1.9,28.94,NNE,22,0.0,0.0,56,0.00,,,0.00,VWS V14.01,2013-01-14 13:23:00,
2013-01-14 07:28:00,14.7,1.9,28.94,NNE,22,0.0,0.0,56,0.00,,,0.00,VWS V14.01,2013-01-14 13:28:00,
2013-01-14 07:33:00,14.7,1.9,28.97,NNW,338,3.6,3.6,56,0.00,,,0.00,VWS V14.01,2013-01-14 13:33:00,
2013-01-14 07:38:00,14.7,1.9,28.97,NNW,338,0.0,0.0,56,0.00,,,0.00,VWS V14.01,2013-01-14 13:38:00,
2013-01-14 07:43:00,14.7,1.9,28.97,North,0,0.0,0.0,56,0.00,,,0.00,VWS V14.01,2013-01-14 13:43:00,
2013-01-14 07:48:00,14.7,1.9,28.97,North,0,0.0,0.0,56,0.00,,,0.00,VWS V14.01,2013-01-14 13:48:00,
2013-01-14 07:53:00,14.7,1.9,28.97,North,0,0.0,0.0,56,0.00,,,0.00,VWS V14.01,2013-01-14 13:53:00,
2013-01-14 07:58:00,14.7,1.9,28.97,North,0,0.0,0.0,56,0.00,,,0.00,VWS V14.01,2013-01-14 13:58:00,
2013-01-14 08:03:00,14.7,1.9,28.97,North,0,3.4,3.8,56,0.00,,,0.00,VWS V14.01,2013-01-14 14:03:00,
2013-01-14 08:08:00,14.7,1.9,28.97,NE,45,3.1,3.6,56,0.00,,,0.00,VWS V14.01,2013-01-14 14:08:00,
2013-01-14 08:13:00,16.0,3.1,28.97,NE,45,0.0,0.0,56,0.00,,,0.00,VWS V14.01,2013-01-14 14:13:00,
2013-01-14 08:18:00,16.2,3.6,28.97,NNE,22,0.0,0.0,57,0.00,,,0.00,VWS V14.01,2013-01-14 14:18:00,
2013-01-14 08:23:00,16.5,4.0,28.97,NE,45,1.3,2.7,57,0.00,,,0.00,VWS V14.01,2013-01-14 14:23:00,
2013-01-14 08:28:00,16.5,4.0,28.97,NNW,338,0.0,3.6,57,0.00,,,0.00,VWS V14.01,2013-01-14 14:28:00,
2013-01-14 08:33:00,16.5,4.0,28.97,NNW,338,0.0,0.0,57,0.00,,,0.00,VWS V14.01,2013-01-14 14:33:00,
2013-01-14 08:38:00,16.5,4.0,28.97,NNW,338,0.0,0.0,57,0.00,,,0.00,VWS V14.01,2013-01-14 14:38:00,
2013-01-14 08:43:00,16.5,4.0,28.97,NNW,338,0.0,0.0,57,0.00,,,0.00,VWS V14.01,2013-01-14 14:43:00,
2013-01-14 08:48:00,16.5,4.0,28.97,North,0,2.5,3.4,57,0.00,,,0.00,VWS V14.01,2013-01-14 14:48:00,
2013-01-14 08:53:00,16.5,4.0,28.97,North,0,3.4,3.4,57,0.00,,,0.00,VWS V14.01,2013-01-14 14:53:00,
2013-01-14 08:58:00,16.5,4.0,28.97,NNE,22,0.0,0.0,57,0.00,,,0.00,VWS V14.01,2013-01-14 14:58:00,
2013-01-14 09:03:00,16.5,4.0,28.97,NNE,22,0.0,0.0,57,0.00,,,0.00,VWS V14.01,2013-01-14 15:03:00,
2013-01-14 09:08:00,16.5,4.0,28.97,NNW,338,0.0,0.0,57,0.00,,,0.00,VWS V14.01,2013-01-14 15:08:00,
2013-01-14 09:13:00,19.6,6.8,28.97,North,0,4.0,4.0,57,0.00,,,0.00,VWS V14.01,2013-01-14 15:13:00,
2013-01-14 09:18:00,19.6,6.8,28.97,NNW,338,3.6,3.6,57,0.00,,,0.00,VWS V14.01,2013-01-14 15:18:00,
2013-01-14 09:23:00,19.6,6.8,28.97,North,0,5.4,5.4,57,0.00,,,0.00,VWS V14.01,2013-01-14 15:23:00,
2013-01-14 09:28:00,19.6,6.8,28.97,NNE,22,5.8,5.8,57,0.00,,,0.00,VWS V14.01,2013-01-14 15:28:00,
2013-01-14 09:33:00,19.6,6.8,28.97,NNE,22,4.9,4.9,57,0.00,,,0.00,VWS V14.01,2013-01-14 15:33:00,
2013-01-14 09:38:00,19.6,6.8,28.97,North,0,6.0,6.0,57,0.00,,,0.00,VWS V14.01,2013-01-14 15:38:00,
2013-01-14 09:43:00,19.6,6.8,28.97,NNE,22,4.0,4.0,57,0.00,,,0.00,VWS V14.01,2013-01-14 15:43:00,
2013-01-14 09:48:00,19.6,6.8,28.97,NNW,338,5.6,5.6,57,0.00,,,0.00,VWS V14.01,2013-01-14 15:48:00,
2013-01-14 09:53:00,19.6,6.8,28.97,NNE,22,4.0,5.8,57,0.00,,,0.00,VWS V14.01,2013-01-14 15:53:00,
2013-01-14 09:58:00,19.6,6.8,28.97,NNE,22,5.6,5.6,57,0.00,,,0.00,VWS V14.01,2013-01-14 15:58:00,
2013-01-14 10:03:00,19.6,6.8,28.94,NNE,22,6.3,6.3,57,0.00,,,0.00,VWS V14.01,2013-01-14 16:03:00,
2013-01-14 10:08:00,23.9,8.9,28.94,NNE,22,7.2,7.2,52,0.00,,,0.00,VWS V14.01,2013-01-14 16:08:00,
2013-01-14 10:13:00,24.1,8.1,28.94,NNE,22,5.4,5.4,50,0.00,,,0.00,VWS V14.01,2013-01-14 16:13:00,
2013-01-14 10:18:00,25.7,8.7,28.94,NNE,22,8.7,8.7,48,0.00,,,0.00,VWS V14.01,2013-01-14 16:18:00,
2013-01-14 10:23:00,25.9,8.4,28.94,NNE,22,5.4,5.8,47,0.00,,,0.00,VWS V14.01,2013-01-14 16:23:00,
2013-01-14 10:28:00,25.9,8.4,28.94,North,0,7.2,7.6,47,0.00,,,0.00,VWS V14.01,2013-01-14 16:28:00,
2013-01-14 10:33:00,26.8,8.8,28.94,North,0,6.5,6.5,46,0.00,,,0.00,VWS V14.01,2013-01-14 16:33:00,
2013-01-14 10:38:00,26.8,8.8,28.94,NNE,22,7.6,8.5,46,0.00,,,0.00,VWS V14.01,2013-01-14 16:38:00,
2013-01-14 10:43:00,26.6,8.1,28.94,NNE,22,8.7,8.7,45,0.00,,,0.00,VWS V14.01,2013-01-14 16:43:00,
2013-01-14 10:48:00,26.6,7.6,28.94,NNE,22,6.3,6.5,44,0.00,,,0.00,VWS V14.01,2013-01-14 16:48:00,
2013-01-14 10:53:00,27.0,8.0,28.94,NNE,22,6.5,6.5,44,0.00,,,0.00,VWS V14.01,2013-01-14 16:53:00,
2013-01-14 10:58:00,27.1,7.6,28.94,NNE,22,6.5,7.6,43,0.00,,,0.00,VWS V14.01,2013-01-14 16:58:00,
2013-01-14 11:03:00,28.0,8.4,28.94,NNE,22,7.4,7.6,43,0.00,,,0.00,VWS V14.01,2013-01-14 17:03:00,
2013-01-14 11:08:00,28.0,8.4,28.94,NNE,22,5.8,6.5,43,0.00,,,0.00,VWS V14.01,2013-01-14 17:08:00,
2013-01-14 11:13:00,28.2,8.6,28.94,NE,45,6.9,6.9,43,0.00,,,0.00,VWS V14.01,2013-01-14 17:13:00,
2013-01-14 11:18:00,28.9,8.7,28.94,NE,45,6.3,6.3,42,0.00,,,0.00,VWS V14.01,2013-01-14 17:18:00,
2013-01-14 11:23:00,29.7,9.4,28.94,ENE,68,4.9,4.9,42,0.00,,,0.00,VWS V14.01,2013-01-14 17:23:00,
2013-01-14 11:28:00,29.5,9.2,28.94,NNE,22,8.1,8.5,42,0.00,,,0.00,VWS V14.01,2013-01-14 17:28:00,
2013-01-14 11:33:00,29.7,9.4,28.91,NNE,22,5.4,5.4,42,0.00,,,0.00,VWS V14.01,2013-01-14 17:33:00,
2013-01-14 11:38:00,29.7,9.4,28.91,ENE,68,8.5,11.0,42,0.00,,,0.00,VWS V14.01,2013-01-14 17:38:00,
2013-01-14 11:43:00,29.5,8.7,28.91,NNE,22,8.5,8.5,41,0.00,,,0.00,VWS V14.01,2013-01-14 17:43:00,
2013-01-14 11:48:00,30.2,9.4,28.91,NNE,22,9.8,9.8,41,0.00,,,0.00,VWS V14.01,2013-01-14 17:48:00,
2013-01-14 11:53:00,29.8,9.0,28.91,NE,45,7.8,10.1,41,0.00,,,0.00,VWS V14.01,2013-01-14 17:53:00,
2013-01-14 11:58:00,30.4,9.5,28.91,NE,45,10.7,10.7,41,0.00,,,0.00,VWS V14.01,2013-01-14 17:58:00,
2013-01-14 12:03:00,30.2,9.4,28.91,NNE,22,11.2,11.2,41,0.00,,,0.00,VWS V14.01,2013-01-14 18:03:00,
2013-01-14 12:08:00,30.2,9.4,28.91,NNE,22,10.3,10.5,41,0.00,,,0.00,VWS V14.01,2013-01-14 18:08:00,
2013-01-14 12:13:00,30.6,9.1,28.91,NNE,22,9.0,9.0,40,0.00,,,0.00,VWS V14.01,2013-01-14 18:13:00,
2013-01-14 12:18:00,30.6,9.1,28.88,NE,45,5.8,7.4,40,0.00,,,0.00,VWS V14.01,2013-01-14 18:18:00,
2013-01-14 12:23:00,30.6,9.1,28.88,ENE,68,7.6,7.6,40,0.00,,,0.00,VWS V14.01,2013-01-14 18:23:00,
2013-01-14 12:28:00,30.6,9.1,28.88,NNE,22,10.1,10.1,40,0.00,,,0.00,VWS V14.01,2013-01-14 18:28:00,
2013-01-14 12:33:00,30.6,9.1,28.88,NNE,22,4.5,7.6,40,0.00,,,0.00,VWS V14.01,2013-01-14 18:33:00,
2013-01-14 12:38:00,30.6,9.1,28.88,NE,45,5.8,5.8,40,0.00,,,0.00,VWS V14.01,2013-01-14 18:38:00,
2013-01-14 12:43:00,32.0,10.4,28.88,North,0,9.8,9.8,40,0.00,,,0.00,VWS V14.01,2013-01-14 18:43:00,
2013-01-14 12:48:00,32.2,10.6,28.88,NE,45,7.6,7.6,40,0.00,,,0.00,VWS V14.01,2013-01-14 18:48:00,
2013-01-14 12:53:00,32.2,10.6,28.88,North,0,8.7,9.0,40,0.00,,,0.00,VWS V14.01,2013-01-14 18:53:00,
2013-01-14 12:58:00,32.5,10.9,28.88,North,0,6.5,6.5,40,0.00,,,0.00,VWS V14.01,2013-01-14 18:58:00,
2013-01-14 13:03:00,32.7,11.1,28.85,ENE,68,4.9,4.9,40,0.00,,,0.00,VWS V14.01,2013-01-14 19:03:00,
2013-01-14 13:08:00,32.7,11.1,28.85,NE,45,9.2,9.2,40,0.00,,,0.00,VWS V14.01,2013-01-14 19:08:00,
2013-01-14 13:13:00,32.7,11.1,28.85,North,0,8.5,8.5,40,0.00,,,0.00,VWS V14.01,2013-01-14 19:13:00,
2013-01-14 13:18:00,33.1,11.4,28.85,ENE,68,6.5,7.2,40,0.00,,,0.00,VWS V14.01,2013-01-14 19:18:00,
2013-01-14 13:24:00,33.1,11.4,28.85,NNE,22,7.4,7.4,40,0.00,,,0.00,VWS V14.01,2013-01-14 19:24:00,
2013-01-14 13:29:00,33.1,11.4,28.85,ENE,68,5.4,8.1,40,0.00,,,0.00,VWS V14.01,2013-01-14 19:29:00,
2013-01-14 13:34:00,33.1,11.4,28.85,NE,45,2.0,4.9,40,0.00,,,0.00,VWS V14.01,2013-01-14 19:34:00,
2013-01-14 13:39:00,33.4,11.7,28.85,NE,45,5.8,6.0,40,0.00,,,0.00,VWS V14.01,2013-01-14 19:39:00,
2013-01-14 13:44:00,33.8,12.1,28.85,NNW,338,3.6,4.9,40,0.00,,,0.00,VWS V14.01,2013-01-14 19:44:00,
2013-01-14 13:49:00,33.8,11.5,28.85,ENE,68,7.4,7.4,39,0.00,,,0.00,VWS V14.01,2013-01-14 19:49:00,
2013-01-14 13:54:00,33.8,11.5,28.85,NE,45,7.4,7.4,39,0.00,,,0.00,VWS V14.01,2013-01-14 19:54:00,
2013-01-14 13:59:00,33.4,11.2,28.85,NNE,22,5.4,5.4,39,0.00,,,0.00,VWS V14.01,2013-01-14 19:59:00,
2013-01-14 14:04:00,33.6,11.9,28.85,NNE,22,9.4,9.4,40,0.00,,,0.00,VWS V14.01,2013-01-14 20:04:00,
2013-01-14 14:09:00,33.6,11.9,28.85,ESE,112,6.3,6.3,40,0.00,,,0.00,VWS V14.01,2013-01-14 20:09:00,
2013-01-14 14:14:00,33.6,11.9,28.85,ENE,68,7.8,7.8,40,0.00,,,0.00,VWS V14.01,2013-01-14 20:14:00,
2013-01-14 14:19:00,33.6,11.9,28.85,ENE,68,7.8,8.5,40,0.00,,,0.00,VWS V14.01,2013-01-14 20:19:00,
2013-01-14 14:24:00,33.6,11.9,28.85,NE,45,2.5,2.5,40,0.00,,,0.00,VWS V14.01,2013-01-14 20:24:00,
2013-01-14 14:29:00,33.6,11.9,28.85,ENE,68,10.7,10.7,40,0.00,,,0.00,VWS V14.01,2013-01-14 20:29:00,
2013-01-14 14:34:00,34.3,11.4,28.85,ENE,68,2.0,4.0,38,0.00,,,0.00,VWS V14.01,2013-01-14 20:34:00,
2013-01-14 14:39:00,34.3,11.4,28.85,NE,45,3.6,4.9,38,0.00,,,0.00,VWS V14.01,2013-01-14 20:39:00,
2013-01-14 14:44:00,34.3,11.4,28.85,ENE,68,8.5,11.2,38,0.00,,,0.00,VWS V14.01,2013-01-14 20:44:00,
2013-01-14 14:49:00,34.3,11.4,28.85,NE,45,6.0,7.6,38,0.00,,,0.00,VWS V14.01,2013-01-14 20:49:00,
2013-01-14 14:54:00,34.3,11.4,28.85,NNE,22,4.3,4.3,38,0.00,,,0.00,VWS V14.01,2013-01-14 20:54:00,
2013-01-14 14:59:00,34.3,11.4,28.85,ENE,68,5.4,5.6,38,0.00,,,0.00,VWS V14.01,2013-01-14 20:59:00,
2013-01-14 15:04:00,34.3,11.4,28.85,ENE,68,5.6,5.6,38,0.00,,,0.00,VWS V14.01,2013-01-14 21:04:00,
2013-01-14 15:09:00,34.3,11.4,28.82,NE,45,6.0,7.2,38,0.00,,,0.00,VWS V14.01,2013-01-14 21:09:00,
2013-01-14 15:14:00,34.3,11.4,28.82,ENE,68,13.2,13.2,38,0.00,,,0.00,VWS V14.01,2013-01-14 21:14:00,
2013-01-14 15:19:00,34.3,11.4,28.85,ENE,68,3.6,6.5,38,0.00,,,0.00,VWS V14.01,2013-01-14 21:19:00,
2013-01-14 15:24:00,34.3,11.4,28.85,ENE,68,7.2,7.2,38,0.00,,,0.00,VWS V14.01,2013-01-14 21:24:00,
2013-01-14 15:29:00,34.3,11.4,28.85,East,90,7.8,7.8,38,0.00,,,0.00,VWS V14.01,2013-01-14 21:29:00,
2013-01-14 15:34:00,34.0,10.5,28.85,East,90,6.5,6.5,37,0.00,,,0.00,VWS V14.01,2013-01-14 21:34:00,
2013-01-14 15:39:00,34.0,10.5,28.85,NE,45,8.1,8.1,37,0.00,,,0.00,VWS V14.01,2013-01-14 21:39:00,
2013-01-14 15:44:00,33.8,10.3,28.85,ESE,112,7.4,7.4,37,0.00,,,0.00,VWS V14.01,2013-01-14 21:44:00,
2013-01-14 15:49:00,33.8,10.3,28.85,East,90,4.9,6.5,37,0.00,,,0.00,VWS V14.01,2013-01-14 21:49:00,
2013-01-14 15:54:00,33.8,10.3,28.85,ENE,68,6.0,12.3,37,0.00,,,0.00,VWS V14.01,2013-01-14 21:54:00,
2013-01-14 15:59:00,33.8,10.3,28.85,ENE,68,5.8,7.4,37,0.00,,,0.00,VWS V14.01,2013-01-14 21:59:00,
2013-01-14 16:04:00,33.8,10.3,28.82,ENE,68,6.3,10.1,37,0.00,,,0.00,VWS V14.01,2013-01-14 22:04:00,
2013-01-14 16:09:00,33.8,10.3,28.82,ENE,68,7.4,7.4,37,0.00,,,0.00,VWS V14.01,2013-01-14 22:09:00,
2013-01-14 16:14:00,33.8,10.3,28.82,ENE,68,6.3,8.1,37,0.00,,,0.00,VWS V14.01,2013-01-14 22:14:00,
2013-01-14 16:19:00,33.3,9.8,28.82,NE,45,6.3,6.3,37,0.00,,,0.00,VWS V14.01,2013-01-14 22:19:00,
2013-01-14 16:24:00,33.3,9.8,28.82,ENE,68,4.3,4.7,37,0.00,,,0.00,VWS V14.01,2013-01-14 22:24:00,
2013-01-14 16:29:00,33.1,9.7,28.82,ENE,68,6.7,7.6,37,0.00,,,0.00,VWS V14.01,2013-01-14 22:29:00,
2013-01-14 16:34:00,33.3,9.8,28.82,East,90,5.8,5.8,37,0.00,,,0.00,VWS V14.01,2013-01-14 22:34:00,
2013-01-14 16:39:00,33.1,9.7,28.82,ENE,68,6.0,6.0,37,0.00,,,0.00,VWS V14.01,2013-01-14 22:39:00,
2013-01-14 16:44:00,33.1,9.7,28.82,ENE,68,6.0,6.3,37,0.00,,,0.00,VWS V14.01,2013-01-14 22:44:00,
2013-01-14 16:49:00,32.9,9.5,28.82,ENE,68,4.3,4.3,37,0.00,,,0.00,VWS V14.01,2013-01-14 22:49:00,
2013-01-14 16:54:00,32.9,9.5,28.82,East,90,5.6,5.6,37,0.00,,,0.00,VWS V14.01,2013-01-14 22:54:00,
2013-01-14 16:59:00,32.9,9.5,28.82,NE,45,1.3,1.3,37,0.00,,,0.00,VWS V14.01,2013-01-14 22:59:00,
2013-01-14 17:04:00,32.4,9.0,28.82,ENE,68,4.3,6.3,37,0.00,,,0.00,VWS V14.01,2013-01-14 23:04:00,
2013-01-14 17:09:00,32.2,8.9,28.82,ENE,68,3.4,3.4,37,0.00,,,0.00,VWS V14.01,2013-01-14 23:09:00,
2013-01-14 17:14:00,32.0,8.7,28.82,ENE,68,3.8,3.8,37,0.00,,,0.00,VWS V14.01,2013-01-14 23:14:00,
2013-01-14 17:19:00,32.0,8.7,28.85,ENE,68,2.9,4.9,37,0.00,,,0.00,VWS V14.01,2013-01-14 23:19:00,
2013-01-14 17:24:00,31.3,8.0,28.85,ENE,68,5.6,5.6,37,0.00,,,0.00,VWS V14.01,2013-01-14 23:24:00,
2013-01-14 17:29:00,31.1,8.5,28.85,East,90,0.9,2.0,38,0.00,,,0.00,VWS V14.01,2013-01-14 23:29:00,
2013-01-14 17:34:00,31.1,8.5,28.85,East,90,5.8,6.0,38,0.00,,,0.00,VWS V14.01,2013-01-14 23:34:00,
2013-01-14 17:39:00,30.2,7.7,28.85,ESE,112,5.6,5.6,38,0.00,,,0.00,VWS V14.01,2013-01-14 23:39:00,
2013-01-14 17:44:00,30.2,7.7,28.85,East,90,6.0,6.0,38,0.00,,,0.00,VWS V14.01,2013-01-14 23:44:00,
2013-01-14 17:49:00,30.2,7.7,28.85,ESE,112,5.6,5.6,38,0.00,,,0.00,VWS V14.01,2013-01-14 23:49:00,
2013-01-14 17:54:00,29.8,7.9,28.85,East,90,5.8,5.8,39,0.00,,,0.00,VWS V14.01,2013-01-14 23:54:00,
2013-01-14 17:59:00,29.7,7.8,28.85,ESE,112,4.3,4.3,39,0.00,,,0.00,VWS V14.01,2013-01-14 23:59:00,
2013-01-14 18:04:00,29.5,7.6,28.85,East,90,0.0,0.0,39,0.00,,,0.00,VWS V14.01,2013-01-15 00:04:00,
2013-01-14 18:09:00,29.3,7.4,28.85,East,90,0.0,1.3,39,0.00,,,0.00,VWS V14.01,2013-01-15 00:09:00,
2013-01-14 18:14:00,29.1,7.3,28.85,East,90,0.9,0.9,39,0.00,,,0.00,VWS V14.01,2013-01-15 00:14:00,
2013-01-14 18:19:00,29.1,7.3,28.85,East,90,1.6,1.6,39,0.00,,,0.00,VWS V14.01,2013-01-15 00:19:00,
2013-01-14 18:24:00,29.1,7.3,28.85,East,90,3.8,3.8,39,0.00,,,0.00,VWS V14.01,2013-01-15 00:24:00,
2013-01-14 18:29:00,29.1,7.3,28.85,East,90,0.0,0.0,39,0.00,,,0.00,VWS V14.01,2013-01-15 00:29:00,
2013-01-14 18:34:00,28.4,7.2,28.85,East,90,0.0,0.0,40,0.00,,,0.00,VWS V14.01,2013-01-15 00:34:00,
2013-01-14 18:39:00,28.2,7.0,28.85,East,90,0.0,0.0,40,0.00,,,0.00,VWS V14.01,2013-01-15 00:39:00,
2013-01-14 18:44:00,27.9,6.7,28.85,East,90,0.0,0.0,40,0.00,,,0.00,VWS V14.01,2013-01-15 00:44:00,
2013-01-14 18:49:00,27.9,6.7,28.85,East,90,0.0,0.0,40,0.00,,,0.00,VWS V14.01,2013-01-15 00:49:00,
2013-01-14 18:54:00,27.5,6.9,28.85,East,90,0.0,0.0,41,0.00,,,0.00,VWS V14.01,2013-01-15 00:54:00,
2013-01-14 18:59:00,27.5,6.9,28.85,East,90,0.0,0.0,41,0.00,,,0.00,VWS V14.01,2013-01-15 00:59:00,
2013-01-14 19:04:00,27.3,6.7,28.85,East,90,3.8,3.8,41,0.00,,,0.00,VWS V14.01,2013-01-15 01:04:00,
2013-01-14 19:09:00,27.3,6.7,28.85,East,90,3.4,3.4,41,0.00,,,0.00,VWS V14.01,2013-01-15 01:09:00,
2013-01-14 19:14:00,27.1,6.6,28.85,ENE,68,0.0,0.0,41,0.00,,,0.00,VWS V14.01,2013-01-15 01:14:00,
2013-01-14 19:19:00,27.1,6.6,28.85,East,90,1.1,1.1,41,0.00,,,0.00,VWS V14.01,2013-01-15 01:19:00,
2013-01-14 19:24:00,27.0,6.4,28.85,ENE,68,0.0,0.9,41,0.00,,,0.00,VWS V14.01,2013-01-15 01:24:00,
2013-01-14 19:29:00,26.8,6.2,28.85,ENE,68,0.0,0.0,41,0.00,,,0.00,VWS V14.01,2013-01-15 01:29:00,
2013-01-14 19:34:00,26.8,6.2,28.85,ENE,68,0.0,0.0,41,0.00,,,0.00,VWS V14.01,2013-01-15 01:34:00,
2013-01-14 19:39:00,26.6,6.6,28.85,ENE,68,0.0,0.0,42,0.00,,,0.00,VWS V14.01,2013-01-15 01:39:00,
2013-01-14 19:44:00,26.6,6.6,28.85,East,90,0.0,0.0,42,0.00,,,0.00,VWS V14.01,2013-01-15 01:44:00,
2013-01-14 19:49:00,26.4,6.4,28.82,ENE,68,0.0,0.0,42,0.00,,,0.00,VWS V14.01,2013-01-15 01:49:00,
2013-01-14 19:54:00,26.2,6.3,28.82,ENE,68,0.0,0.0,42,0.00,,,0.00,VWS V14.01,2013-01-15 01:54:00,
2013-01-14 19:59:00,26.2,6.3,28.82,ENE,68,0.0,0.0,42,0.00,,,0.00,VWS V14.01,2013-01-15 01:59:00,
2013-01-14 20:04:00,26.1,6.1,28.85,ENE,68,0.0,0.0,42,0.00,,,0.00,VWS V14.01,2013-01-15 02:04:00,
2013-01-14 20:09:00,25.9,6.0,28.85,ENE,68,0.0,0.0,42,0.00,,,0.00,VWS V14.01,2013-01-15 02:09:00,
2013-01-14 20:14:00,25.7,5.8,28.85,ENE,68,0.0,0.0,42,0.00,,,0.00,VWS V14.01,2013-01-15 02:14:00,
2013-01-14 20:19:00,25.7,5.8,28.82,ENE,68,0.0,0.0,42,0.00,,,0.00,VWS V14.01,2013-01-15 02:19:00,
2013-01-14 20:24:00,25.5,5.6,28.82,East,90,0.0,0.0,42,0.00,,,0.00,VWS V14.01,2013-01-15 02:24:00,
2013-01-14 20:29:00,25.3,5.5,28.82,East,90,0.0,0.0,42,0.00,,,0.00,VWS V14.01,2013-01-15 02:29:00,
2013-01-14 20:34:00,25.2,5.3,28.82,ESE,112,0.0,0.0,42,0.00,,,0.00,VWS V14.01,2013-01-15 02:34:00,
2013-01-14 20:39:00,25.2,5.3,28.82,ESE,112,0.0,0.0,42,0.00,,,0.00,VWS V14.01,2013-01-15 02:39:00,
2013-01-14 20:44:00,25.0,5.1,28.82,East,90,2.9,2.9,42,0.00,,,0.00,VWS V14.01,2013-01-15 02:44:00,
2013-01-14 20:49:00,24.8,5.5,28.82,East,90,2.0,4.3,43,0.00,,,0.00,VWS V14.01,2013-01-15 02:49:00,
2013-01-14 20:54:00,24.8,5.5,28.82,East,90,0.0,0.0,43,0.00,,,0.00,VWS V14.01,2013-01-15 02:54:00,
2013-01-14 20:59:00,24.6,5.3,28.82,East,90,0.0,0.0,43,0.00,,,0.00,VWS V14.01,2013-01-15 02:59:00,
2013-01-14 21:04:00,24.4,5.2,28.82,ESE,112,3.8,3.8,43,0.00,,,0.00,VWS V14.01,2013-01-15 03:04:00,
2013-01-14 21:09:00,24.4,5.2,28.82,ESE,112,0.0,0.0,43,0.00,,,0.00,VWS V14.01,2013-01-15 03:09:00,
2013-01-14 21:14:00,24.4,5.2,28.82,East,90,0.0,0.0,43,0.00,,,0.00,VWS V14.01,2013-01-15 03:14:00,
2013-01-14 21:19:00,24.4,5.2,28.82,East,90,0.0,0.0,43,0.00,,,0.00,VWS V14.01,2013-01-15 03:19:00,
2013-01-14 21:24:00,24.4,5.2,28.82,ENE,68,0.0,0.0,43,0.00,,,0.00,VWS V14.01,2013-01-15 03:24:00,
2013-01-14 21:30:00,24.3,5.0,28.82,East,90,0.0,0.0,43,0.00,,,0.00,VWS V14.01,2013-01-15 03:30:00,
2013-01-14 21:35:00,24.3,5.0,28.85,East,90,0.0,0.0,43,0.00,,,0.00,VWS V14.01,2013-01-15 03:35:00,
2013-01-14 21:40:00,24.3,5.0,28.85,ENE,68,0.0,0.0,43,0.00,,,0.00,VWS V14.01,2013-01-15 03:40:00,
2013-01-14 21:45:00,24.3,5.0,28.85,ENE,68,0.0,0.0,43,0.00,,,0.00,VWS V14.01,2013-01-15 03:45:00,
2013-01-14 21:50:00,24.3,5.0,28.82,ENE,68,0.0,0.0,43,0.00,,,0.00,VWS V14.01,2013-01-15 03:50:00,
2013-01-14 21:55:00,24.3,5.0,28.82,ENE,68,0.0,3.4,43,0.00,,,0.00,VWS V14.01,2013-01-15 03:55:00,
2013-01-14 22:00:00,24.3,5.0,28.82,ENE,68,4.0,4.0,43,0.00,,,0.00,VWS V14.01,2013-01-15 04:00:00,
2013-01-14 22:05:00,24.3,5.0,28.82,ENE,68,0.0,0.0,43,0.00,,,0.00,VWS V14.01,2013-01-15 04:05:00,
2013-01-14 22:10:00,24.3,5.0,28.82,East,90,0.0,1.1,43,0.00,,,0.00,VWS V14.01,2013-01-15 04:10:00,
2013-01-14 22:15:00,24.3,5.0,28.82,ENE,68,0.0,0.0,43,0.00,,,0.00,VWS V14.01,2013-01-15 04:15:00,
2013-01-14 22:20:00,24.3,5.0,28.82,ENE,68,0.0,0.0,43,0.00,,,0.00,VWS V14.01,2013-01-15 04:20:00,
2013-01-14 22:25:00,24.3,5.0,28.82,East,90,0.0,0.0,43,0.00,,,0.00,VWS V14.01,2013-01-15 04:25:00,
2013-01-14 22:30:00,24.3,5.0,28.82,ENE,68,0.0,0.0,43,0.00,,,0.00,VWS V14.01,2013-01-15 04:30:00,
2013-01-14 22:35:00,24.3,5.0,28.82,NE,45,0.0,0.0,43,0.00,,,0.00,VWS V14.01,2013-01-15 04:35:00,
2013-01-14 22:40:00,24.3,5.0,28.82,ENE,68,0.0,0.0,43,0.00,,,0.00,VWS V14.01,2013-01-15 04:40:00,
2013-01-14 22:45:00,24.3,5.0,28.82,NE,45,0.0,0.0,43,0.00,,,0.00,VWS V14.01,2013-01-15 04:45:00,
2013-01-14 22:50:00,24.3,5.0,28.82,ENE,68,0.0,0.0,43,0.00,,,0.00,VWS V14.01,2013-01-15 04:50:00,
2013-01-14 22:55:00,24.3,5.0,28.82,ENE,68,0.0,0.0,43,0.00,,,0.00,VWS V14.01,2013-01-15 04:55:00,
2013-01-14 23:00:00,24.3,5.0,28.82,ENE,68,0.0,0.0,43,0.00,,,0.00,VWS V14.01,2013-01-15 05:00:00,
2013-01-14 23:01:00,24.3,5.0,28.82,ENE,68,3.1,3.1,43,0.00,,,0.00,VWS V14.01,2013-01-15 05:01:00,
2013-01-14 23:06:00,24.3,5.0,28.82,ENE,68,0.0,0.0,43,0.00,,,0.00,VWS V14.01,2013-01-15 05:06:00,
2013-01-14 23:11:00,24.3,5.0,28.82,ENE,68,0.0,0.0,43,0.00,,,0.00,VWS V14.01,2013-01-15 05:11:00,
2013-01-14 23:16:00,24.3,5.0,28.85,ENE,68,0.0,0.0,43,0.00,,,0.00,VWS V14.01,2013-01-15 05:16:00,
2013-01-14 23:21:00,24.3,5.0,28.85,ENE,68,0.0,0.0,43,0.00,,,0.00,VWS V14.01,2013-01-15 05:21:00,
2013-01-14 23:26:00,23.0,5.8,28.85,ENE,68,0.0,0.0,47,0.00,,,0.00,VWS V14.01,2013-01-15 05:26:00,
2013-01-14 23:31:00,23.0,5.8,28.82,NE,45,0.0,0.0,47,0.00,,,0.00,VWS V14.01,2013-01-15 05:31:00,
2013-01-14 23:36:00,22.8,5.6,28.82,NE,45,0.0,0.0,47,0.00,,,0.00,VWS V14.01,2013-01-15 05:36:00,
2013-01-14 23:41:00,22.8,5.6,28.82,NE,45,0.0,0.0,47,0.00,,,0.00,VWS V14.01,2013-01-15 05:41:00,
2013-01-14 23:46:00,22.8,5.6,28.82,NE,45,0.0,0.0,47,0.00,,,0.00,VWS V14.01,2013-01-15 05:46:00,
2013-01-14 23:51:00,22.8,5.6,28.82,ENE,68,0.0,0.0,47,0.00,,,0.00,VWS V14.01,2013-01-15 05:51:00,
2013-01-14 23:56:00,22.3,5.6,28.82,ENE,68,0.0,0.0,48,0.00,,,0.00,VWS V14.01,2013-01-15 05:56:00,